XNO32J DTNH-EGGD

Flight info

Callsign XNO32J
Flight time 2h 51m
Altitude 24000
Route VAXAL1C VAXAL A411 TUC/N0463F340 UA725 OSMAR DCT PIRIX DCT INDUM DCT UPDUT DCT CORSI DCT OMEDA DCT MERLU DCT PIGOS DCT BARSO/N0460F360 DCT OKTET DCT GIPNO DCT BULOL DCT IDAVO DCT BAGBI DCT SIZZA DCT LAULY DCT BRY DCT CLM DCT KOPOR DCT KESAX DCT KUNAV T421 ICTAM L179 SAWPE
Aircraft B738/M-SDE2E3FGHIRWXY/LB1

Departure

Time 2026-04-21 09:12
Airport Enfidha - Hammamet International Airport (DTNH)

Arrival

Time 2026-04-21 12:04
Airport Bristol Airport (EGGD)
Time Latitude Longitude Altitude Speed Heading
2026-04-21 07:30 36.08139 10.43777 15 ft 0 kts 70°
2026-04-21 09:00 36.08133 10.43752 15 ft 4 kts 75°
2026-04-21 09:00 36.08125 10.43725 16 ft 1 kts 54°
2026-04-21 09:00 36.08111 10.43701 20 ft 4 kts 57°
2026-04-21 09:01 36.08097 10.43677 21 ft 0 kts 46°
2026-04-21 09:03 36.08102 10.43697 21 ft 1 kts 89°
2026-04-21 09:03 36.08102 10.43701 21 ft 0 kts 99°
2026-04-21 09:04 36.08100 10.43706 21 ft 0 kts 108°
2026-04-21 09:04 36.08094 10.43718 21 ft 3 kts 129°
2026-04-21 09:04 36.08067 10.43753 21 ft 7 kts 134°
2026-04-21 09:05 36.08006 10.43795 26 ft 11 kts 169°
2026-04-21 09:05 36.07918 10.43795 28 ft 14 kts 181°
2026-04-21 09:05 36.07814 10.43797 27 ft 13 kts 179°
2026-04-21 09:05 36.07766 10.43812 29 ft 8 kts 141°
2026-04-21 09:06 36.07747 10.43879 30 ft 10 kts 91°
2026-04-21 09:06 36.07746 10.43928 31 ft 0 kts 91°
2026-04-21 09:06 36.07746 10.43940 31 ft 4 kts 91°
2026-04-21 09:06 36.07745 10.43989 31 ft 8 kts 91°
2026-04-21 09:07 36.07747 10.44010 31 ft 1 kts 67°
2026-04-21 09:07 36.07768 10.43999 31 ft 9 kts 310°
2026-04-21 09:07 36.07753 10.43905 30 ft 14 kts 255°
2026-04-21 09:07 36.07748 10.43771 28 ft 16 kts 269°
2026-04-21 09:08 36.07745 10.43633 26 ft 17 kts 269°
2026-04-21 09:08 36.07747 10.43524 26 ft 12 kts 272°
2026-04-21 09:08 36.07748 10.43408 27 ft 15 kts 270°
2026-04-21 09:08 36.07748 10.43265 26 ft 16 kts 270°
2026-04-21 09:09 36.07751 10.43128 28 ft 16 kts 269°
2026-04-21 09:09 36.07750 10.42986 29 ft 16 kts 270°
2026-04-21 09:09 36.07750 10.42876 31 ft 11 kts 271°
2026-04-21 09:09 36.07751 10.42760 31 ft 18 kts 271°
2026-04-21 09:10 36.07752 10.42615 31 ft 11 kts 269°
2026-04-21 09:10 36.07752 10.42520 32 ft 12 kts 269°
2026-04-21 09:10 36.07753 10.42398 33 ft 16 kts 271°
2026-04-21 09:10 36.07752 10.42268 31 ft 11 kts 256°
2026-04-21 09:11 36.07683 10.42213 31 ft 14 kts 183°
2026-04-21 09:11 36.07597 10.42260 29 ft 15 kts 118°
2026-04-21 09:11 36.07581 10.42493 29 ft 60 kts 90°
2026-04-21 09:11 36.07579 10.43344 29 ft 136 kts 91°
2026-04-21 09:12 36.07577 10.44736 331 ft 176 kts 90°
2026-04-21 09:12 36.07579 10.46349 943 ft 204 kts 84°
2026-04-21 09:12 36.08089 10.48099 1287 ft 235 kts 56°
2026-04-21 09:12 36.09321 10.49591 1766 ft 258 kts 31°
2026-04-21 09:13 36.11032 10.50325 2518 ft 265 kts
2026-04-21 09:13 36.12842 10.50059 3480 ft 262 kts 342°
2026-04-21 09:13 36.14567 10.49310 4366 ft 264 kts 339°
2026-04-21 09:13 36.16307 10.48512 5195 ft 269 kts 338°
2026-04-21 09:14 36.18077 10.47685 5958 ft 276 kts 338°
2026-04-21 09:14 36.19999 10.47348 6690 ft 286 kts
2026-04-21 09:14 36.21957 10.47858 7536 ft 290 kts 12°
2026-04-21 09:14 36.23918 10.48504 8318 ft 293 kts 12°
2026-04-21 09:15 36.25904 10.49153 9083 ft 297 kts 12°
2026-04-21 09:15 36.27921 10.49723 9840 ft 297 kts
2026-04-21 09:15 36.29951 10.49377 10452 ft 301 kts 339°
2026-04-21 09:15 36.31980 10.48420 10644 ft 323 kts 336°
2026-04-21 09:16 36.34125 10.47324 10833 ft 345 kts 336°
2026-04-21 09:16 36.36418 10.46174 10994 ft 365 kts 336°
2026-04-21 09:16 36.38837 10.44985 11198 ft 381 kts 337°
2026-04-21 09:16 36.41336 10.43793 11679 ft 388 kts 338°
2026-04-21 09:17 36.43858 10.42609 12341 ft 388 kts 338°
2026-04-21 09:17 36.46386 10.41427 13030 ft 389 kts 338°
2026-04-21 09:17 36.48931 10.40235 13585 ft 393 kts 338°
2026-04-21 09:17 36.51504 10.39028 14091 ft 398 kts 338°
2026-04-21 09:18 36.54102 10.37804 14665 ft 400 kts 338°
2026-04-21 09:18 36.56709 10.36572 15212 ft 403 kts 337°
2026-04-21 09:18 36.59349 10.35324 15745 ft 407 kts 337°
2026-04-21 09:18 36.62002 10.34069 16265 ft 409 kts 337°
2026-04-21 09:19 36.64679 10.32802 16760 ft 413 kts 337°
2026-04-21 09:19 36.67372 10.31526 17233 ft 417 kts 337°
2026-04-21 09:19 36.70091 10.30236 17751 ft 419 kts 337°
2026-04-21 09:19 36.72824 10.28938 18238 ft 422 kts 337°
2026-04-21 09:20 36.75577 10.27630 18683 ft 425 kts 337°
2026-04-21 09:20 36.78315 10.26330 19141 ft 428 kts 337°
2026-04-21 09:20 36.81102 10.25005 19586 ft 430 kts 337°
2026-04-21 09:20 36.83907 10.23670 20048 ft 432 kts 337°
2026-04-21 09:21 36.86764 10.22448 20486 ft 436 kts 342°
2026-04-21 09:21 36.89710 10.21489 20901 ft 439 kts 344°
2026-04-21 09:21 36.92689 10.20603 21303 ft 442 kts 344°
2026-04-21 09:21 36.95690 10.19727 21701 ft 443 kts 344°
2026-04-21 09:22 36.98696 10.18839 22075 ft 446 kts 344°
2026-04-21 09:22 37.01718 10.17928 22422 ft 448 kts 344°
2026-04-21 09:22 37.04756 10.16997 22767 ft 450 kts 343°
2026-04-21 09:22 37.07806 10.16050 23093 ft 452 kts 343°
2026-04-21 09:23 37.10864 10.15096 23417 ft 454 kts 343°
2026-04-21 09:23 37.13933 10.14136 23736 ft 456 kts 343°
2026-04-21 09:23 37.17023 10.13169 23995 ft 459 kts 343°
2026-04-21 09:23 37.20127 10.12197 24284 ft 461 kts 343°
2026-04-21 09:24 37.23236 10.11224 24586 ft 462 kts 343°
2026-04-21 09:24 37.26361 10.10244 24895 ft 464 kts 343°
2026-04-21 09:24 37.29501 10.09260 25190 ft 465 kts 343°
2026-04-21 09:24 37.32646 10.08274 25478 ft 466 kts 343°
2026-04-21 09:25 37.35795 10.07286 25745 ft 468 kts 343°
2026-04-21 09:25 37.38957 10.06292 26043 ft 468 kts 343°
2026-04-21 09:25 37.42111 10.05300 26438 ft 467 kts 343°
2026-04-21 09:25 37.45259 10.04313 26866 ft 464 kts 343°
2026-04-21 09:26 37.48389 10.03330 27276 ft 463 kts 343°
2026-04-21 09:26 37.51511 10.02348 27647 ft 462 kts 343°
2026-04-21 09:26 37.54625 10.01367 27985 ft 462 kts 343°
2026-04-21 09:26 37.57743 10.00384 28386 ft 460 kts 343°
2026-04-21 09:27 37.60843 9.99406 28781 ft 458 kts 343°
2026-04-21 09:27 37.63930 9.98431 29186 ft 457 kts 343°
2026-04-21 09:27 37.67003 9.97460 29561 ft 455 kts 343°
2026-04-21 09:27 37.70078 9.96487 29902 ft 455 kts 343°
2026-04-21 09:28 37.73147 9.95515 30220 ft 454 kts 343°
2026-04-21 09:28 37.76206 9.94546 30550 ft 454 kts 343°
2026-04-21 09:28 37.79261 9.93574 30896 ft 453 kts 342°
2026-04-21 09:28 37.82312 9.92599 31252 ft 451 kts 342°
2026-04-21 09:29 37.85347 9.91627 31560 ft 450 kts 342°
2026-04-21 09:29 37.87365 9.90980 31751 ft 450 kts 342°
2026-04-21 09:29 37.90397 9.90008 32063 ft 449 kts 342°
2026-04-21 09:29 37.93426 9.89036 32347 ft 449 kts 342°
2026-04-21 09:30 37.96448 9.88066 32632 ft 449 kts 342°
2026-04-21 09:30 37.99473 9.87095 32930 ft 447 kts 342°
2026-04-21 09:30 38.02482 9.86128 33227 ft 446 kts 342°
2026-04-21 09:30 38.05498 9.85158 33486 ft 446 kts 342°
2026-04-21 09:31 38.08503 9.84192 33739 ft 446 kts 342°
2026-04-21 09:31 38.11501 9.83225 34027 ft 444 kts 342°
2026-04-21 09:31 38.14494 9.82258 34293 ft 443 kts 342°
2026-04-21 09:31 38.17486 9.81292 34516 ft 443 kts 342°
2026-04-21 09:32 38.20476 9.80327 34735 ft 443 kts 342°
2026-04-21 09:32 38.23462 9.79361 34985 ft 442 kts 342°
2026-04-21 09:32 38.26443 9.78398 35270 ft 441 kts 342°
2026-04-21 09:32 38.29409 9.77444 35515 ft 440 kts 342°
2026-04-21 09:33 38.32375 9.76492 35727 ft 439 kts 342°
2026-04-21 09:33 38.35343 9.75540 35910 ft 440 kts 342°
2026-04-21 09:33 38.41298 9.73624 35959 ft 442 kts 342°
2026-04-21 09:34 38.47237 9.71714 35959 ft 438 kts 342°
2026-04-21 09:34 38.53129 9.69814 35963 ft 436 kts 342°
2026-04-21 09:35 38.58946 9.67931 35963 ft 433 kts 342°
2026-04-21 09:35 38.64779 9.66040 35963 ft 432 kts 341°
2026-04-21 09:36 38.70608 9.64149 35969 ft 432 kts 341°
2026-04-21 09:36 38.76434 9.62256 35962 ft 432 kts 341°
2026-04-21 09:37 38.82254 9.60361 35961 ft 431 kts 341°
2026-04-21 09:37 38.88069 9.58464 35961 ft 431 kts 341°
2026-04-21 09:38 38.93872 9.56545 35963 ft 430 kts 341°
2026-04-21 09:38 38.99654 9.54576 35963 ft 430 kts 341°
2026-04-21 09:39 39.05428 9.52603 35964 ft 429 kts 341°
2026-04-21 09:39 39.11204 9.50631 35960 ft 429 kts 341°
2026-04-21 09:40 39.16981 9.48657 35957 ft 429 kts 341°
2026-04-21 09:40 39.22746 9.46687 35963 ft 429 kts 341°
2026-04-21 09:41 39.28514 9.44710 35958 ft 429 kts 341°
2026-04-21 09:41 39.34290 9.42728 35966 ft 429 kts 341°
2026-04-21 09:42 39.40067 9.40742 35963 ft 430 kts 341°
2026-04-21 09:42 39.45834 9.38757 35966 ft 430 kts 340°
2026-04-21 09:43 39.51624 9.36761 35962 ft 431 kts 340°
2026-04-21 09:43 39.57414 9.34761 35964 ft 431 kts 340°
2026-04-21 09:44 39.63212 9.32755 35964 ft 431 kts 340°
2026-04-21 09:44 39.69008 9.30747 35955 ft 431 kts 340°
2026-04-21 09:45 39.74662 9.28784 35944 ft 431 kts 340°
2026-04-21 09:45 39.80528 9.26743 35944 ft 431 kts 340°
2026-04-21 09:46 39.86313 9.24727 35942 ft 430 kts 340°
2026-04-21 09:46 39.92091 9.22711 35953 ft 430 kts 340°
2026-04-21 09:47 39.97902 9.20679 35945 ft 430 kts 340°
2026-04-21 09:47 40.03663 9.18659 35950 ft 429 kts 340°
2026-04-21 09:48 40.09397 9.16646 35937 ft 429 kts 340°
2026-04-21 09:48 40.15199 9.14607 35948 ft 429 kts 340°
2026-04-21 09:49 40.20964 9.12578 35942 ft 429 kts 340°
2026-04-21 09:49 40.26687 9.10560 35952 ft 428 kts 340°
2026-04-21 09:50 40.30533 9.09202 35947 ft 428 kts 340°
2026-04-21 09:50 40.38211 9.06489 35956 ft 427 kts 340°
2026-04-21 09:51 40.43917 9.04464 35954 ft 427 kts 340°
2026-04-21 09:51 40.49660 9.02420 35954 ft 428 kts 340°
2026-04-21 09:52 40.55407 9.00375 35950 ft 428 kts 340°
2026-04-21 09:52 40.61169 8.98320 35956 ft 428 kts 340°
2026-04-21 09:53 40.66917 8.96267 35951 ft 428 kts 340°
2026-04-21 09:53 40.72665 8.94211 35952 ft 428 kts 340°
2026-04-21 09:54 40.78418 8.92149 35962 ft 428 kts 340°
2026-04-21 09:54 40.84173 8.90082 35954 ft 429 kts 340°
2026-04-21 09:55 40.89938 8.88008 35955 ft 430 kts 340°
2026-04-21 09:55 40.95704 8.85932 35950 ft 430 kts 340°
2026-04-21 09:56 41.01685 8.84921 35958 ft 439 kts 354°
2026-04-21 09:56 41.07793 8.84943 35950 ft 439 kts 354°
2026-04-21 09:57 41.13901 8.84927 35944 ft 439 kts 354°
2026-04-21 09:57 41.20002 8.84860 35943 ft 438 kts 354°
2026-04-21 09:58 41.26037 8.84343 35938 ft 430 kts 343°
2026-04-21 09:58 41.31686 8.81967 35944 ft 425 kts 336°
2026-04-21 09:59 41.37279 8.79422 35943 ft 425 kts 337°
2026-04-21 09:59 41.42891 8.76923 35946 ft 425 kts 337°
2026-04-21 10:00 41.48466 8.74443 35945 ft 425 kts 337°
2026-04-21 10:00 41.54086 8.71933 35945 ft 426 kts 337°
2026-04-21 10:01 41.59741 8.69402 35954 ft 426 kts 337°
2026-04-21 10:01 41.65325 8.66895 35951 ft 426 kts 336°
2026-04-21 10:02 41.73764 8.63100 35960 ft 426 kts 336°
2026-04-21 10:03 41.79380 8.60567 35964 ft 426 kts 336°
2026-04-21 10:03 41.85021 8.58018 35976 ft 431 kts 336°
2026-04-21 10:04 41.90736 8.55430 35968 ft 436 kts 336°
2026-04-21 10:04 41.96508 8.52814 35965 ft 439 kts 336°
2026-04-21 10:05 42.02311 8.50181 35957 ft 440 kts 336°
2026-04-21 10:05 42.08085 8.47555 35956 ft 437 kts 336°
2026-04-21 10:06 42.13839 8.44931 35964 ft 437 kts 336°
2026-04-21 10:06 42.19595 8.42300 35954 ft 437 kts 336°
2026-04-21 10:07 42.25349 8.39666 35955 ft 437 kts 336°
2026-04-21 10:07 42.31099 8.37029 35953 ft 437 kts 336°
2026-04-21 10:08 42.36558 8.33606 35964 ft 431 kts 327°
2026-04-21 10:08 42.41750 8.29649 35952 ft 431 kts 327°
2026-04-21 10:09 42.47014 8.25645 35945 ft 432 kts 327°
2026-04-21 10:09 42.52266 8.21681 35944 ft 432 kts 327°
2026-04-21 10:10 42.57524 8.17719 35944 ft 432 kts 327°
2026-04-21 10:10 42.62741 8.13784 35945 ft 432 kts 327°
2026-04-21 10:11 42.67985 8.09820 35944 ft 431 kts 327°
2026-04-21 10:11 42.73224 8.05852 35943 ft 431 kts 327°
2026-04-21 10:12 42.78452 8.01882 35945 ft 430 kts 327°
2026-04-21 10:12 42.83673 7.97910 35944 ft 430 kts 327°
2026-04-21 10:13 42.88899 7.93927 35947 ft 430 kts 327°
2026-04-21 10:13 42.94120 7.89940 35944 ft 430 kts 327°
2026-04-21 10:14 42.99336 7.85949 35948 ft 430 kts 327°
2026-04-21 10:14 43.04547 7.81954 35942 ft 430 kts 327°
2026-04-21 10:15 43.09757 7.77951 35946 ft 429 kts 327°
2026-04-21 10:15 43.14963 7.73934 35947 ft 429 kts 327°
2026-04-21 10:16 43.20160 7.69914 35943 ft 427 kts 327°
2026-04-21 10:16 43.22709 7.67943 35928 ft 414 kts 326°
2026-04-21 10:16 43.25177 7.66035 35920 ft 401 kts 326°
2026-04-21 10:17 43.29184 7.62926 35938 ft 397 kts 326°
2026-04-21 10:17 43.33992 7.59179 35948 ft 397 kts 326°
2026-04-21 10:18 43.39573 7.54828 35947 ft 397 kts 326°
2026-04-21 10:18 43.43595 7.51689 35945 ft 397 kts 326°
2026-04-21 10:19 43.48406 7.47927 35948 ft 398 kts 326°
2026-04-21 10:19 43.53221 7.44155 35944 ft 398 kts 326°
2026-04-21 10:20 43.58038 7.40375 35948 ft 399 kts 326°
2026-04-21 10:20 43.62857 7.36551 35939 ft 399 kts 324°
2026-04-21 10:21 43.67504 7.32383 35934 ft 398 kts 322°
2026-04-21 10:21 43.72106 7.28105 35941 ft 398 kts 322°
2026-04-21 10:22 43.76699 7.23859 35951 ft 397 kts 322°
2026-04-21 10:22 43.81310 7.19615 35941 ft 398 kts 322°
2026-04-21 10:23 43.85894 7.15399 35947 ft 399 kts 322°
2026-04-21 10:23 43.90511 7.11145 35948 ft 398 kts 322°
2026-04-21 10:24 43.95122 7.06891 35941 ft 398 kts 322°
2026-04-21 10:24 43.99726 7.02631 35945 ft 398 kts 322°
2026-04-21 10:25 44.04363 6.98332 35965 ft 405 kts 322°
2026-04-21 10:25 44.09115 6.93917 35964 ft 414 kts 322°
2026-04-21 10:26 44.13927 6.89442 35951 ft 418 kts 322°
2026-04-21 10:26 44.18773 6.84927 35954 ft 420 kts 322°
2026-04-21 10:27 44.23623 6.80396 35954 ft 419 kts 322°
2026-04-21 10:27 44.28461 6.75866 35953 ft 419 kts 322°
2026-04-21 10:28 44.33289 6.71336 35966 ft 417 kts 322°
2026-04-21 10:28 44.38104 6.66809 35957 ft 417 kts 322°
2026-04-21 10:29 44.42906 6.62285 35964 ft 416 kts 322°
2026-04-21 10:29 44.47657 6.57801 35960 ft 414 kts 322°
2026-04-21 10:30 44.52433 6.53281 35965 ft 415 kts 322°
2026-04-21 10:30 44.57218 6.48743 35969 ft 415 kts 322°
2026-04-21 10:31 44.61980 6.44215 35985 ft 412 kts 322°
2026-04-21 10:31 44.66718 6.39702 36001 ft 412 kts 322°
2026-04-21 10:32 44.71468 6.35166 35973 ft 414 kts 322°
2026-04-21 10:32 44.76229 6.30614 36002 ft 415 kts 322°
2026-04-21 10:33 44.81010 6.26030 35998 ft 416 kts 322°
2026-04-21 10:33 44.85795 6.21436 35982 ft 416 kts 322°
2026-04-21 10:34 44.90579 6.16834 35992 ft 416 kts 322°
2026-04-21 10:34 44.95353 6.12228 35993 ft 416 kts 322°
2026-04-21 10:35 45.00130 6.07610 36005 ft 416 kts 322°
2026-04-21 10:35 45.04875 6.03015 35995 ft 416 kts 322°
2026-04-21 10:36 45.09639 5.98393 36007 ft 415 kts 322°
2026-04-21 10:36 45.14405 5.93761 36006 ft 416 kts 322°
2026-04-21 10:37 45.19174 5.89113 36008 ft 417 kts 322°
2026-04-21 10:37 45.23945 5.84454 36012 ft 416 kts 322°
2026-04-21 10:38 45.28716 5.79784 36015 ft 415 kts 322°
2026-04-21 10:38 45.33466 5.75129 36017 ft 415 kts 322°
2026-04-21 10:39 45.38208 5.70472 36028 ft 415 kts 322°
2026-04-21 10:39 45.42955 5.65798 36021 ft 415 kts 322°
2026-04-21 10:40 45.47700 5.61116 36026 ft 414 kts 322°
2026-04-21 10:40 45.52434 5.56435 36027 ft 414 kts 322°
2026-04-21 10:41 45.57176 5.51761 36025 ft 414 kts 323°
2026-04-21 10:41 45.62059 5.47377 36032 ft 415 kts 325°
2026-04-21 10:42 45.66986 5.43062 36025 ft 415 kts 325°
2026-04-21 10:42 45.71898 5.38706 36035 ft 415 kts 324°
2026-04-21 10:43 45.76802 5.34315 36044 ft 416 kts 324°
2026-04-21 10:43 45.81698 5.29909 36043 ft 416 kts 324°
2026-04-21 10:44 45.86603 5.25492 36047 ft 416 kts 324°
2026-04-21 10:44 45.91510 5.21064 36050 ft 417 kts 324°
2026-04-21 10:45 45.96413 5.16629 36044 ft 417 kts 324°
2026-04-21 10:45 46.01315 5.12188 36051 ft 417 kts 324°
2026-04-21 10:46 46.06324 5.07957 36045 ft 420 kts 332°
2026-04-21 10:46 46.11660 5.04624 36036 ft 421 kts 333°
2026-04-21 10:47 46.17032 5.01293 36035 ft 420 kts 332°
2026-04-21 10:47 46.22381 4.97889 36051 ft 420 kts 332°
2026-04-21 10:48 46.27735 4.94461 36048 ft 421 kts 332°
2026-04-21 10:48 46.33082 4.91032 36047 ft 421 kts 332°
2026-04-21 10:49 46.38432 4.87594 36048 ft 421 kts 332°
2026-04-21 10:49 46.43783 4.84146 36053 ft 421 kts 332°
2026-04-21 10:50 46.49125 4.80699 36059 ft 420 kts 332°
2026-04-21 10:50 46.54470 4.77240 36058 ft 420 kts 332°
2026-04-21 10:51 46.59810 4.73777 36056 ft 420 kts 332°
2026-04-21 10:51 46.65148 4.70307 36051 ft 420 kts 332°
2026-04-21 10:52 46.70478 4.66838 36056 ft 420 kts 332°
2026-04-21 10:52 46.75816 4.63356 36063 ft 420 kts 332°
2026-04-21 10:53 46.81152 4.59865 36071 ft 420 kts 332°
2026-04-21 10:53 46.86488 4.56389 36058 ft 420 kts 332°
2026-04-21 10:54 46.91831 4.52916 36064 ft 420 kts 332°
2026-04-21 10:54 46.97165 4.49439 36068 ft 420 kts 332°
2026-04-21 10:55 47.02493 4.45955 36063 ft 420 kts 332°
2026-04-21 10:55 47.07826 4.42460 36073 ft 419 kts 332°
2026-04-21 10:56 47.13144 4.38967 36074 ft 419 kts 332°
2026-04-21 10:56 47.18463 4.35468 36071 ft 419 kts 332°
2026-04-21 10:57 47.23775 4.31963 36073 ft 418 kts 332°
2026-04-21 10:57 47.29082 4.28452 36075 ft 418 kts 332°
2026-04-21 10:58 47.34353 4.24960 36090 ft 418 kts 332°
2026-04-21 10:58 47.39648 4.21441 36092 ft 417 kts 332°
2026-04-21 10:59 47.44944 4.17916 36100 ft 417 kts 332°
2026-04-21 10:59 47.50238 4.14383 36105 ft 418 kts 332°
2026-04-21 11:00 47.55534 4.10844 36105 ft 417 kts 332°
2026-04-21 11:00 47.60830 4.07309 36110 ft 417 kts 332°
2026-04-21 11:01 47.66120 4.03772 36114 ft 417 kts 332°
2026-04-21 11:01 47.71399 4.00232 36119 ft 417 kts 332°
2026-04-21 11:02 47.79329 3.94898 36124 ft 417 kts 332°
2026-04-21 11:02 47.84610 3.91335 36149 ft 417 kts 332°
2026-04-21 11:03 47.89863 3.87785 36130 ft 418 kts 332°
2026-04-21 11:03 47.95186 3.84175 36145 ft 423 kts 332°
2026-04-21 11:04 48.00556 3.80528 36150 ft 425 kts 332°
2026-04-21 11:04 48.05950 3.76860 36146 ft 426 kts 332°
2026-04-21 11:05 48.11346 3.73179 36145 ft 426 kts 332°
2026-04-21 11:05 48.16393 3.68678 36161 ft 421 kts 319°
2026-04-21 11:06 48.20522 3.62537 36158 ft 418 kts 311°
2026-04-21 11:06 48.24440 3.56083 36151 ft 418 kts 311°
2026-04-21 11:07 48.27706 3.50736 36157 ft 418 kts 311°
2026-04-21 11:07 48.31642 3.44319 36158 ft 418 kts 311°
2026-04-21 11:08 48.35584 3.37884 36163 ft 418 kts 311°
2026-04-21 11:08 48.39651 3.31635 36161 ft 420 kts 319°
2026-04-21 11:09 48.44595 3.26899 36157 ft 425 kts 333°
2026-04-21 11:09 48.50062 3.23438 36161 ft 427 kts 334°
2026-04-21 11:10 48.55540 3.20013 36164 ft 426 kts 334°
2026-04-21 11:10 48.61012 3.16535 36172 ft 426 kts 334°
2026-04-21 11:11 48.66474 3.13031 36176 ft 427 kts 334°
2026-04-21 11:11 48.71937 3.09516 36170 ft 427 kts 334°
2026-04-21 11:12 48.77403 3.05991 36179 ft 427 kts 333°
2026-04-21 11:12 48.82877 3.02453 36186 ft 427 kts 333°
2026-04-21 11:13 48.88165 2.98431 36190 ft 424 kts 327°
2026-04-21 11:13 48.93246 2.93893 36188 ft 424 kts 327°
2026-04-21 11:14 48.98296 2.89364 36182 ft 424 kts 327°
2026-04-21 11:14 49.03405 2.84837 36183 ft 425 kts 327°
2026-04-21 11:15 49.08519 2.80325 36184 ft 425 kts 327°
2026-04-21 11:15 49.13629 2.75813 36185 ft 425 kts 327°
2026-04-21 11:16 49.18742 2.71286 36183 ft 425 kts 327°
2026-04-21 11:16 49.23847 2.66753 36191 ft 424 kts 327°
2026-04-21 11:17 49.28947 2.62217 36198 ft 424 kts 327°
2026-04-21 11:17 49.34045 2.57669 36197 ft 424 kts 327°
2026-04-21 11:18 49.39131 2.53119 36201 ft 423 kts 327°
2026-04-21 11:18 49.44218 2.48560 36203 ft 423 kts 327°
2026-04-21 11:19 49.49296 2.43997 36208 ft 423 kts 327°
2026-04-21 11:19 49.54045 2.38760 36221 ft 419 kts 317°
2026-04-21 11:20 49.58438 2.32867 36213 ft 419 kts 317°
2026-04-21 11:20 49.62841 2.26968 36209 ft 419 kts 318°
2026-04-21 11:21 49.67218 2.21128 36216 ft 419 kts 318°
2026-04-21 11:21 49.71627 2.15250 36219 ft 418 kts 318°
2026-04-21 11:22 49.76029 2.09366 36221 ft 418 kts 318°
2026-04-21 11:22 49.80422 2.03478 36222 ft 418 kts 317°
2026-04-21 11:23 49.84810 1.97583 36223 ft 417 kts 317°
2026-04-21 11:23 49.89190 1.91683 36230 ft 417 kts 317°
2026-04-21 11:24 49.93566 1.85772 36229 ft 417 kts 317°
2026-04-21 11:24 49.97938 1.79853 36230 ft 417 kts 317°
2026-04-21 11:25 50.02304 1.73931 36240 ft 417 kts 317°
2026-04-21 11:25 50.06669 1.67992 36243 ft 417 kts 317°
2026-04-21 11:26 50.11047 1.62048 36248 ft 418 kts 317°
2026-04-21 11:26 50.15445 1.56089 36250 ft 420 kts 317°
2026-04-21 11:27 50.19848 1.50109 36260 ft 420 kts 317°
2026-04-21 11:27 50.24255 1.44102 36256 ft 421 kts 317°
2026-04-21 11:28 50.28661 1.38079 36256 ft 421 kts 317°
2026-04-21 11:28 50.33073 1.32030 36263 ft 422 kts 317°
2026-04-21 11:29 50.37481 1.25974 36265 ft 422 kts 317°
2026-04-21 11:29 50.41898 1.19886 36266 ft 423 kts 317°
2026-04-21 11:30 50.46325 1.13772 36270 ft 424 kts 317°
2026-04-21 11:30 50.50760 1.07631 36264 ft 425 kts 317°
2026-04-21 11:31 50.55329 1.01715 36276 ft 426 kts 320°
2026-04-21 11:31 50.59987 0.96017 36276 ft 427 kts 321°
2026-04-21 11:32 50.64672 0.90257 36281 ft 427 kts 320°
2026-04-21 11:32 50.69340 0.84459 36287 ft 428 kts 320°
2026-04-21 11:33 50.74017 0.78617 36283 ft 429 kts 320°
2026-04-21 11:33 50.78691 0.72759 36294 ft 429 kts 320°
2026-04-21 11:34 50.83372 0.66880 36296 ft 430 kts 320°
2026-04-21 11:34 50.88048 0.60989 36293 ft 430 kts 320°
2026-04-21 11:35 50.92726 0.55083 36292 ft 430 kts 320°
2026-04-21 11:35 50.97401 0.49160 36300 ft 430 kts 320°
2026-04-21 11:36 51.02079 0.43224 36299 ft 431 kts 320°
2026-04-21 11:36 51.06755 0.37273 36317 ft 431 kts 320°
2026-04-21 11:37 51.11434 0.31308 36319 ft 431 kts 320°
2026-04-21 11:37 51.16120 0.25325 36311 ft 432 kts 320°
2026-04-21 11:38 51.20813 0.19319 36323 ft 433 kts 320°
2026-04-21 11:38 51.25510 0.13285 36307 ft 433 kts 320°
2026-04-21 11:39 51.30153 0.07160 36300 ft 433 kts 314°
2026-04-21 11:39 51.33582 -0.00696 36322 ft 434 kts 297°
2026-04-21 11:40 51.35468 -0.09838 36331 ft 434 kts 285°
2026-04-21 11:40 51.36965 -0.19176 36318 ft 430 kts 285°
2026-04-21 11:41 51.37699 -0.23739 36297 ft 415 kts 285°
2026-04-21 11:41 51.38414 -0.28134 36295 ft 401 kts 286°
2026-04-21 11:41 51.39117 -0.32417 36050 ft 400 kts 286°
2026-04-21 11:41 51.39831 -0.36742 35528 ft 400 kts 286°
2026-04-21 11:42 51.40543 -0.41052 34898 ft 400 kts 286°
2026-04-21 11:42 51.41252 -0.45343 34272 ft 400 kts 286°
2026-04-21 11:42 51.41964 -0.49663 33615 ft 401 kts 286°
2026-04-21 11:42 51.42672 -0.53978 32935 ft 402 kts 286°
2026-04-21 11:43 51.43383 -0.58315 32236 ft 402 kts 286°
2026-04-21 11:43 51.44091 -0.62647 31524 ft 403 kts 286°
2026-04-21 11:43 51.44800 -0.67000 30797 ft 403 kts 286°
2026-04-21 11:43 51.45505 -0.71341 30035 ft 403 kts 286°
2026-04-21 11:44 51.46199 -0.75624 29239 ft 403 kts 286°
2026-04-21 11:44 51.46912 -0.80039 28376 ft 403 kts 286°
2026-04-21 11:44 51.47615 -0.84404 27507 ft 405 kts 286°
2026-04-21 11:44 51.48308 -0.88715 26629 ft 406 kts 286°
2026-04-21 11:45 51.49018 -0.93146 25965 ft 402 kts 286°
2026-04-21 11:45 51.49707 -0.97450 25290 ft 399 kts 286°
2026-04-21 11:45 51.50384 -1.01693 24644 ft 395 kts 286°
2026-04-21 11:45 51.51061 -1.05948 24021 ft 391 kts 286°
2026-04-21 11:46 51.51731 -1.10169 23389 ft 389 kts 286°
2026-04-21 11:46 51.52393 -1.14349 22761 ft 386 kts 286°
2026-04-21 11:46 51.53015 -1.18549 22113 ft 385 kts 284°
2026-04-21 11:46 51.53537 -1.22768 21469 ft 385 kts 283°
2026-04-21 11:47 51.54021 -1.26996 20832 ft 384 kts 282°
2026-04-21 11:47 51.54499 -1.31212 20200 ft 384 kts 282°
2026-04-21 11:47 51.54980 -1.35421 19574 ft 383 kts 282°
2026-04-21 11:47 51.55467 -1.39634 18947 ft 383 kts 282°
2026-04-21 11:48 51.55957 -1.43848 18320 ft 384 kts 282°
2026-04-21 11:48 51.56449 -1.48075 17684 ft 385 kts 282°
2026-04-21 11:48 51.56941 -1.52301 17050 ft 385 kts 282°
2026-04-21 11:48 51.57435 -1.56544 16404 ft 387 kts 282°
2026-04-21 11:49 51.57928 -1.60798 15763 ft 387 kts 282°
2026-04-21 11:49 51.58418 -1.65055 15115 ft 387 kts 282°
2026-04-21 11:49 51.58830 -1.69372 14168 ft 394 kts 278°
2026-04-21 11:49 51.59124 -1.73756 13435 ft 394 kts 277°
2026-04-21 11:50 51.59407 -1.78129 12777 ft 392 kts 277°
2026-04-21 11:50 51.59702 -1.82411 12562 ft 379 kts 277°
2026-04-21 11:50 51.59962 -1.86585 12365 ft 370 kts 272°
2026-04-21 11:50 51.59550 -1.90632 12083 ft 371 kts 249°
2026-04-21 11:51 51.58346 -1.94315 11953 ft 375 kts 237°
2026-04-21 11:51 51.56899 -1.97833 11772 ft 379 kts 236°
2026-04-21 11:51 51.55441 -2.01353 11591 ft 377 kts 236°
2026-04-21 11:51 51.54011 -2.04872 11423 ft 376 kts 236°
2026-04-21 11:52 51.52623 -2.08419 11226 ft 375 kts 240°
2026-04-21 11:52 51.51571 -2.12284 10826 ft 381 kts 250°
2026-04-21 11:52 51.50701 -2.16284 10498 ft 375 kts 251°
2026-04-21 11:52 51.49867 -2.20211 10331 ft 371 kts 251°
2026-04-21 11:53 51.49022 -2.24130 9960 ft 374 kts 250°
2026-04-21 11:53 51.48155 -2.28074 9588 ft 374 kts 250°
2026-04-21 11:53 51.47277 -2.32005 9211 ft 374 kts 249°
2026-04-21 11:53 51.46388 -2.35939 8834 ft 374 kts 249°
2026-04-21 11:54 51.45504 -2.39823 8656 ft 368 kts 249°
2026-04-21 11:54 51.44926 -2.42352 8538 ft 364 kts 249°
2026-04-21 11:54 51.44057 -2.46143 8380 ft 362 kts 249°
2026-04-21 11:54 51.43182 -2.49948 8207 ft 364 kts 249°
2026-04-21 11:55 51.42305 -2.53765 7929 ft 367 kts 249°
2026-04-21 11:55 51.41426 -2.57577 7562 ft 363 kts 249°
2026-04-21 11:55 51.40552 -2.61358 7208 ft 360 kts 249°
2026-04-21 11:55 51.39682 -2.65119 6845 ft 359 kts 249°
2026-04-21 11:56 51.38818 -2.68842 6475 ft 357 kts 249°
2026-04-21 11:56 51.38002 -2.72542 6116 ft 347 kts 255°
2026-04-21 11:56 51.37948 -2.76275 5763 ft 330 kts 283°
2026-04-21 11:56 51.38532 -2.79719 5481 ft 313 kts 286°
2026-04-21 11:57 51.39038 -2.83044 5183 ft 301 kts 283°
2026-04-21 11:57 51.39415 -2.86284 4919 ft 291 kts 281°
2026-04-21 11:57 51.39720 -2.89440 4626 ft 282 kts 279°
2026-04-21 11:57 51.39997 -2.92500 4391 ft 273 kts 279°
2026-04-21 11:58 51.40226 -2.95468 4105 ft 266 kts 271°
2026-04-21 11:58 51.39712 -2.98204 3874 ft 252 kts 227°
2026-04-21 11:58 51.38380 -2.99657 3847 ft 220 kts 186°
2026-04-21 11:58 51.37000 -2.99433 3691 ft 189 kts 141°
2026-04-21 11:59 51.36317 -2.97954 3573 ft 156 kts 92°
2026-04-21 11:59 51.36604 -2.96391 3459 ft 146 kts 63°
2026-04-21 11:59 51.37020 -2.94930 3244 ft 141 kts 74°
2026-04-21 11:59 51.37240 -2.93448 3088 ft 137 kts 80°
2026-04-21 12:00 51.37405 -2.91965 2921 ft 129 kts 79°
2026-04-21 12:00 51.37523 -2.90618 2732 ft 116 kts 83°
2026-04-21 12:00 51.37595 -2.89328 2572 ft 117 kts 84°
2026-04-21 12:00 51.37651 -2.88018 2423 ft 119 kts 84°
2026-04-21 12:01 51.37704 -2.86686 2262 ft 120 kts 84°
2026-04-21 12:01 51.37756 -2.85359 2117 ft 120 kts 84°
2026-04-21 12:01 51.37804 -2.84016 1940 ft 120 kts 85°
2026-04-21 12:01 51.37851 -2.82681 1801 ft 122 kts 84°
2026-04-21 12:02 51.37909 -2.81323 1634 ft 122 kts 83°
2026-04-21 12:02 51.38010 -2.78623 1300 ft 124 kts 84°
2026-04-21 12:02 51.38062 -2.77241 1138 ft 125 kts 84°
2026-04-21 12:03 51.38114 -2.75852 965 ft 125 kts 84°
2026-04-21 12:03 51.38169 -2.74468 782 ft 124 kts 84°
2026-04-21 12:03 51.38222 -2.73075 646 ft 128 kts 85°
2026-04-21 12:03 51.38267 -2.71954 623 ft 53 kts 86°
2026-04-21 12:04 51.38280 -2.71600 613 ft 28 kts 86°
2026-04-21 12:04 51.38319 -2.71469 603 ft 7 kts 358°
2026-04-21 12:04 51.38361 -2.71497 604 ft 4 kts 330°
2026-04-21 12:04 51.38392 -2.71525 604 ft 3 kts 330°
2026-04-21 12:05 51.38417 -2.71528 606 ft 4 kts 21°
2026-04-21 12:05 51.38422 -2.71524 607 ft 1 kts 32°
2026-04-21 12:05 51.38438 -2.71489 609 ft 7 kts 66°
2026-04-21 12:05 51.38444 -2.71420 612 ft 5 kts 85°
2026-04-21 12:06 51.38445 -2.71403 619 ft 0 kts 82°
2026-04-21 12:06 51.38445 -2.71402 613 ft 1 kts 81°
2026-04-21 12:06 51.38465 -2.71393 619 ft 7 kts 355°
2026-04-21 12:07 51.38512 -2.71402 615 ft 6 kts 356°
2026-04-21 12:07 51.38542 -2.71405 617 ft 0 kts 356°